| time (UTC) | temp F | wind direction | speed MPH | gust MPH | rain 1hr in | rain 24hr in | rain mn in | humidity % | barometer mb |
| 20260906223051 | 73 | 20 | 1.0 | 8.0 | 0.00 | 0.00 | 0.00 | 25 | 1020.2 |
| 20260906222534 | 74 | 271 | 1.0 | 7.0 | 0.00 | 0.00 | 0.00 | 25 | 1020.3 |
| 20260906222033 | 74 | 13 | 1.0 | 6.0 | 0.00 | 0.00 | 0.00 | 24 | 1020.3 |
| 20260906221600 | 74 | 207 | 3.0 | 6.0 | 0.00 | 0.00 | 0.00 | 23 | 1020.3 |
| 20260906221033 | 75 | 64 | 2.0 | 5.0 | 0.00 | 0.00 | 0.00 | 24 | 1020.3 |
| 20260906220532 | 75 | 42 | 2.0 | 7.0 | 0.00 | 0.00 | 0.00 | 23 | 1020.4 |
| 20260906220057 | 75 | 69 | 1.0 | 7.0 | 0.00 | 0.00 | 0.00 | 24 | 1020.5 |
| 20260906215531 | 75 | 8 | 2.0 | 12.0 | 0.00 | 0.00 | 0.00 | 23 | 1020.5 |
| 20260906215031 | 74 | 157 | 2.0 | 12.0 | 0.00 | 0.00 | 0.00 | 24 | 1020.7 |
| 20260906214549 | 75 | 27 | 5.0 | 12.0 | 0.00 | 0.00 | 0.00 | 23 | 1021.0 |
| 20260906214033 | 75 | 131 | 3.0 | 8.0 | 0.00 | 0.00 | 0.00 | 24 | 1021.0 |
| 20260906213533 | 75 | 12 | 1.0 | 10.0 | 0.00 | 0.00 | 0.00 | 24 | 1021.0 |
| 20260906213048 | 74 | 219 | 3.0 | 10.0 | 0.00 | 0.00 | 0.00 | 23 | 1021.1 |
| 20260906212532 | 76 | 337 | 3.0 | 10.0 | 0.00 | 0.00 | 0.00 | 23 | 1021.1 |
| 20260906212034 | 76 | 254 | 3.0 | 8.0 | 0.00 | 0.00 | 0.00 | 23 | 1021.0 |
| 20260906211557 | 75 | 221 | 3.0 | 14.0 | 0.00 | 0.00 | 0.00 | 23 | 1021.0 |
| 20260906211032 | 75 | 174 | 3.0 | 14.0 | 0.00 | 0.00 | 0.00 | 23 | 1021.1 |
| 20260906210535 | 74 | 272 | 2.0 | 9.0 | 0.00 | 0.00 | 0.00 | 23 | 1021.1 |
| 20260906210101 | 74 | 278 | 1.0 | 7.0 | 0.00 | 0.00 | 0.00 | 24 | 1021.2 |
| 20260906205534 | 74 | 341 | 2.0 | 9.0 | 0.00 | 0.00 | 0.00 | 23 | 1021.4 |
| 20260906205034 | 74 | 130 | 2.0 | 12.0 | 0.00 | 0.00 | 0.00 | 25 | 1021.4 |
| 20260906204558 | 74 | 230 | 6.0 | 12.0 | 0.00 | 0.00 | 0.00 | 23 | 1021.5 |
| 20260906204035 | 74 | 125 | 2.0 | 9.0 | 0.00 | 0.00 | 0.00 | 25 | 1021.3 |
| 20260906203534 | 74 | 250 | 2.0 | 9.0 | 0.00 | 0.00 | 0.00 | 22 | 1021.2 |
| 20260906203058 | 74 | 333 | 3.0 | 8.0 | 0.00 | 0.00 | 0.00 | 23 | 1021.3 |
| 20260906202533 | 74 | 317 | 2.0 | 10.0 | 0.00 | 0.00 | 0.00 | 23 | 1021.5 |
| 20260906202035 | 74 | 323 | 2.0 | 10.0 | 0.00 | 0.00 | 0.00 | 23 | 1021.5 |
| 20260906201605 | 74 | 243 | 3.0 | 10.0 | 0.00 | 0.00 | 0.00 | 22 | 1021.5 |
| 20260906201033 | 73 | 314 | 5.0 | 11.0 | 0.00 | 0.00 | 0.00 | 23 | 1021.6 |
| 20260906200533 | 73 | 63 | 2.0 | 13.0 | 0.00 | 0.00 | 0.00 | 23 | 1021.5 |
| 20260906200100 | 73 | 279 | 6.0 | 13.0 | 0.00 | 0.00 | 0.00 | 23 | 1021.5 |
| 20260906195533 | 73 | 108 | 5.0 | 13.0 | 0.00 | 0.00 | 0.00 | 23 | 1021.5 |
| 20260906195033 | 73 | 242 | 7.0 | 13.0 | 0.00 | 0.00 | 0.00 | 23 | 1021.6 |
| 20260906194602 | 74 | 130 | 2.0 | 9.0 | 0.00 | 0.00 | 0.00 | 25 | 1021.7 |
| 20260906194033 | 73 | 338 | 2.0 | 12.0 | 0.00 | 0.00 | 0.00 | 24 | 1021.8 |
| 20260906193533 | 72 | 331 | 5.0 | 12.0 | 0.00 | 0.00 | 0.00 | 25 | 1022.3 |
| 20260906193057 | 73 | 165 | 3.0 | 7.0 | 0.00 | 0.00 | 0.00 | 24 | 1022.4 |
| 20260906192533 | 73 | 77 | 1.0 | 8.0 | 0.00 | 0.00 | 0.00 | 27 | 1022.5 |
| 20260906192033 | 72 | 164 | 2.0 | 10.0 | 0.00 | 0.00 | 0.00 | 25 | 1022.5 |
| 20260906191557 | 72 | 345 | 2.0 | 10.0 | 0.00 | 0.00 | 0.00 | 26 | 1022.7 |
| 20260906191033 | 72 | 208 | 4.0 | 10.0 | 0.00 | 0.00 | 0.00 | 25 | 1022.7 |
| 20260906190533 | 72 | 241 | 2.0 | 11.0 | 0.00 | 0.00 | 0.00 | 25 | 1022.7 |
| 20260906190111 | 72 | 198 | 3.0 | 11.0 | 0.00 | 0.00 | 0.00 | 24 | 1022.9 |
| 20260906185533 | 72 | 197 | 4.0 | 11.0 | 0.00 | 0.00 | 0.00 | 25 | 1023.0 |
| 20260906185033 | 72 | 316 | 2.0 | 7.0 | 0.00 | 0.00 | 0.00 | 26 | 1023.2 |
| 20260906184554 | 72 | 2 | 2.0 | 14.0 | 0.00 | 0.00 | 0.00 | 25 | 1023.4 |
| 20260906184033 | 71 | 191 | 5.0 | 14.0 | 0.00 | 0.00 | 0.00 | 25 | 1023.2 |
| 20260906183533 | 72 | 189 | 4.0 | 14.0 | 0.00 | 0.00 | 0.00 | 25 | 1023.2 |
| 20260906183102 | 72 | 253 | 4.0 | 8.0 | 0.00 | 0.00 | 0.00 | 27 | 1023.2 |
| 20260906182533 | 72 | 338 | 1.0 | 8.0 | 0.00 | 0.00 | 0.00 | 28 | 1023.1 |
| 20260906182034 | 71 | 158 | 3.0 | 8.0 | 0.00 | 0.00 | 0.00 | 26 | 1023.2 |
| 20260906181547 | 71 | 148 | 3.0 | 7.0 | 0.00 | 0.00 | 0.00 | 26 | 1023.2 |
| 20260906181033 | 71 | 129 | 2.0 | 7.0 | 0.00 | 0.00 | 0.00 | 26 | 1023.4 |
| 20260906180534 | 71 | 248 | 4.0 | 10.0 | 0.00 | 0.00 | 0.00 | 27 | 1023.4 |
| 20260906175533 | 70 | 330 | 2.0 | 7.0 | 0.00 | 0.00 | 0.00 | 27 | 1023.6 |
| 20260906175033 | 70 | 237 | 2.0 | 5.0 | 0.00 | 0.00 | 0.00 | 28 | 1023.8 |
| 20260906174554 | 70 | 323 | 2.0 | 9.0 | 0.00 | 0.00 | 0.00 | 27 | 1024.0 |
| 20260906174032 | 70 | 13 | 1.0 | 9.0 | 0.00 | 0.00 | 0.00 | 28 | 1024.0 |
| 20260906173532 | 70 | 221 | 4.0 | 9.0 | 0.00 | 0.00 | 0.00 | 26 | 1024.1 |
| 20260906173052 | 70 | 232 | 1.0 | 5.0 | 0.00 | 0.00 | 0.00 | 29 | 1024.1 |
| 20260906172532 | 69 | 339 | 2.0 | 8.0 | 0.00 | 0.00 | 0.00 | 28 | 1024.1 |
| 20260906172032 | 69 | 15 | 3.0 | 8.0 | 0.00 | 0.00 | 0.00 | 29 | 1024.3 |
| 20260906171559 | 69 | 282 | 3.0 | 9.0 | 0.00 | 0.00 | 0.00 | 28 | 1024.4 |
| 20260906171035 | 69 | 210 | 4.0 | 14.0 | 0.00 | 0.00 | 0.00 | 27 | 1024.4 |
| 20260906170534 | 69 | 241 | 3.0 | 14.0 | 0.00 | 0.00 | 0.00 | 27 | 1024.4 |
| 20260906170057 | 69 | 250 | 1.0 | 9.0 | 0.00 | 0.00 | 0.00 | 29 | 1024.4 |
| 20260906165533 | 69 | 252 | 3.0 | 9.0 | 0.00 | 0.00 | 0.00 | 28 | 1024.3 |
| 20260906165033 | 69 | 302 | 4.0 | 8.0 | 0.00 | 0.00 | 0.00 | 27 | 1024.4 |
| 20260906164557 | 69 | 30 | 2.0 | 13.0 | 0.00 | 0.00 | 0.00 | 28 | 1024.4 |
| 20260906164034 | 69 | 239 | 1.0 | 13.0 | 0.00 | 0.00 | 0.00 | 28 | 1024.3 |
| 20260906163534 | 68 | 153 | 2.0 | 6.0 | 0.00 | 0.00 | 0.00 | 28 | 1024.1 |
| 20260906163052 | 68 | 189 | 2.0 | 9.0 | 0.00 | 0.00 | 0.00 | 27 | 1024.3 |
| 20260906162533 | 68 | 230 | 4.0 | 9.0 | 0.00 | 0.00 | 0.00 | 27 | 1024.3 |
| 20260906162032 | 68 | 160 | 1.0 | 8.0 | 0.00 | 0.00 | 0.00 | 28 | 1024.4 |
| 20260906161557 | 68 | 259 | 3.0 | 8.0 | 0.00 | 0.00 | 0.00 | 27 | 1024.3 |
| 20260906161034 | 68 | 283 | 3.0 | 8.0 | 0.00 | 0.00 | 0.00 | 28 | 1024.4 |
| 20260906160531 | 68 | 169 | 1.0 | 7.0 | 0.00 | 0.00 | 0.00 | 28 | 1024.3 |
| 20260906160107 | 68 | 222 | 2.0 | 7.0 | 0.00 | 0.00 | 0.00 | 30 | 1024.4 |
| 20260906155534 | 68 | 228 | 1.0 | 5.0 | 0.00 | 0.00 | 0.00 | 28 | 1024.3 |
| 20260906155031 | 68 | 0 | 0.0 | 7.0 | 0.00 | 0.00 | 0.00 | 28 | 1024.3 |
| 20260906154600 | 68 | 228 | 2.0 | 7.0 | 0.00 | 0.00 | 0.00 | 28 | 1024.3 |
| 20260906154035 | 68 | 62 | 0.0 | 5.0 | 0.00 | 0.00 | 0.00 | 29 | 1024.2 |
| 20260906153533 | 67 | 287 | 1.0 | 3.0 | 0.00 | 0.00 | 0.00 | 31 | 1024.2 |
| 20260906153103 | 67 | 0 | 1.0 | 3.0 | 0.00 | 0.00 | 0.00 | 32 | 1024.3 |
| 20260906152538 | 67 | 354 | 1.0 | 2.0 | 0.00 | 0.00 | 0.00 | 33 | 1024.4 |
| 20260906152034 | 66 | 359 | 0.0 | 1.0 | 0.00 | 0.00 | 0.00 | 36 | 1024.3 |
| 20260906151557 | 66 | 0 | 0.0 | 1.0 | 0.00 | 0.00 | 0.00 | 38 | 1024.4 |
| 20260906151033 | 65 | 359 | 0.0 | 2.0 | 0.00 | 0.00 | 0.00 | 36 | 1024.4 |
| 20260906150533 | 65 | 359 | 0.0 | 2.0 | 0.00 | 0.00 | 0.00 | 37 | 1024.4 |
| 20260906150058 | 65 | 0 | 0.0 | 1.0 | 0.00 | 0.00 | 0.00 | 35 | 1024.4 |
| 20260906145534 | 65 | 0 | 0.0 | 0.0 | 0.00 | 0.00 | 0.00 | 37 | 1024.4 |
| 20260906145033 | 63 | 0 | 0.0 | 0.0 | 0.00 | 0.00 | 0.00 | 43 | 1024.3 |
| 20260906144553 | 63 | 0 | 0.0 | 0.0 | 0.00 | 0.00 | 0.00 | 40 | 1024.4 |
| 20260906144034 | 63 | 0 | 0.0 | 1.0 | 0.00 | 0.00 | 0.00 | 39 | 1024.4 |
| 20260906143533 | 61 | 0 | 0.0 | 1.0 | 0.00 | 0.00 | 0.00 | 39 | 1024.4 |
| 20260906143057 | 60 | 232 | 1.0 | 1.0 | 0.00 | 0.00 | 0.00 | 37 | 1024.3 |
| 20260906142533 | 59 | 0 | 0.0 | 1.0 | 0.00 | 0.00 | 0.00 | 40 | 1024.4 |
| 20260906142034 | 58 | 233 | 0.0 | 1.0 | 0.00 | 0.00 | 0.00 | 40 | 1024.4 |
| 20260906141554 | 58 | 227 | 0.0 | 1.0 | 0.00 | 0.00 | 0.00 | 42 | 1024.4 |
| 20260906141033 | 57 | 0 | 0.0 | 1.0 | 0.00 | 0.00 | 0.00 | 43 | 1024.3 |
| 20260906140533 | 56 | 0 | 0.0 | 1.0 | 0.00 | 0.00 | 0.00 | 47 | 1024.4 |
| 20260906140056 | 54 | 0 | 0.0 | 1.0 | 0.00 | 0.00 | 0.00 | 45 | 1024.4 |
| 20260906135533 | 53 | 239 | 0.0 | 1.0 | 0.00 | 0.00 | 0.00 | 46 | 1024.5 |
| 20260906135034 | 51 | 0 | 0.0 | 0.0 | 0.00 | 0.00 | 0.00 | 50 | 1024.5 |
| 20260906134558 | 50 | 0 | 0.0 | 0.0 | 0.00 | 0.00 | 0.00 | 49 | 1024.4 |
| 20260906134034 | 50 | 0 | 0.0 | 1.0 | 0.00 | 0.00 | 0.00 | 49 | 1024.4 |
| 20260906133534 | 50 | 0 | 0.0 | 1.0 | 0.00 | 0.00 | 0.00 | 51 | 1024.4 |
| 20260906133116 | 49 | 245 | 0.0 | 1.0 | 0.00 | 0.00 | 0.00 | 51 | 1024.3 |
| 20260906132534 | 49 | 0 | 0.0 | 1.0 | 0.00 | 0.00 | 0.00 | 51 | 1024.3 |
| 20260906132033 | 48 | 0 | 0.0 | 0.0 | 0.00 | 0.00 | 0.00 | 52 | 1024.1 |
| 20260906131557 | 49 | 0 | 0.0 | 1.0 | 0.00 | 0.00 | 0.00 | 51 | 1024.1 |
| 20260906131034 | 49 | 0 | 0.0 | 1.0 | 0.00 | 0.00 | 0.00 | 52 | 1024.1 |
| 20260906130534 | 48 | 245 | 0.0 | 0.0 | 0.00 | 0.00 | 0.00 | 53 | 1024.0 |
| 20260906130048 | 48 | 0 | 0.0 | 1.0 | 0.00 | 0.00 | 0.00 | 52 | 1024.1 |
| 20260906125533 | 49 | 0 | 0.0 | 1.0 | 0.00 | 0.00 | 0.00 | 53 | 1024.1 |
| 20260906125032 | 48 | 0 | 0.0 | 1.0 | 0.00 | 0.00 | 0.00 | 53 | 1024.1 |
| 20260906124554 | 49 | 0 | 0.0 | 0.0 | 0.00 | 0.00 | 0.00 | 53 | 1024.1 |
| 20260906124033 | 50 | 0 | 0.0 | 0.0 | 0.00 | 0.00 | 0.00 | 52 | 1024.0 |
| 20260906123535 | 50 | 0 | 0.0 | 1.0 | 0.00 | 0.00 | 0.00 | 51 | 1024.0 |
| 20260906123050 | 50 | 0 | 0.0 | 1.0 | 0.00 | 0.00 | 0.00 | 50 | 1024.0 |
| 20260906122533 | 49 | 245 | 0.0 | 1.0 | 0.00 | 0.00 | 0.00 | 51 | 1024.1 |
| 20260906122034 | 49 | 0 | 0.0 | 3.0 | 0.00 | 0.00 | 0.00 | 51 | 1024.2 |
| 20260906121557 | 50 | 0 | 0.0 | 3.0 | 0.00 | 0.00 | 0.00 | 52 | 1024.1 |
| 20260906121033 | 49 | 236 | 0.0 | 3.0 | 0.00 | 0.00 | 0.00 | 56 | 1024.1 |
| 20260906120533 | 49 | 227 | 0.0 | 0.0 | 0.00 | 0.00 | 0.00 | 54 | 1024.1 |
| 20260906120053 | 49 | 0 | 0.0 | 1.0 | 0.00 | 0.00 | 0.00 | 55 | 1024.2 |
| 20260906115535 | 50 | 0 | 0.0 | 1.0 | 0.00 | 0.00 | 0.00 | 51 | 1024.2 |
| 20260906115032 | 50 | 0 | 0.0 | 1.0 | 0.00 | 0.00 | 0.00 | 49 | 1024.0 |
| 20260906114604 | 51 | 0 | 0.0 | 1.0 | 0.00 | 0.00 | 0.00 | 48 | 1024.1 |
| 20260906114034 | 52 | 0 | 0.0 | 1.0 | 0.00 | 0.00 | 0.00 | 46 | 1024.1 |
| 20260906113533 | 52 | 0 | 0.0 | 2.0 | 0.00 | 0.00 | 0.00 | 46 | 1024.1 |
| 20260906113058 | 53 | 0 | 1.0 | 2.0 | 0.00 | 0.00 | 0.00 | 45 | 1024.1 |
| 20260906112533 | 53 | 233 | 0.0 | 3.0 | 0.00 | 0.00 | 0.00 | 46 | 1024.1 |
| 20260906112033 | 53 | 235 | 2.0 | 3.0 | 0.00 | 0.00 | 0.00 | 45 | 1024.1 |
| 20260906111550 | 53 | 236 | 1.0 | 2.0 | 0.00 | 0.00 | 0.00 | 46 | 1024.1 |
| 20260906111033 | 53 | 234 | 0.0 | 2.0 | 0.00 | 0.00 | 0.00 | 46 | 1024.1 |
| 20260906110535 | 53 | 0 | 0.0 | 2.0 | 0.00 | 0.00 | 0.00 | 45 | 1024.1 |
| 20260906110052 | 53 | 234 | 1.0 | 3.0 | 0.00 | 0.00 | 0.00 | 45 | 1024.0 |
| 20260906105533 | 53 | 253 | 2.0 | 3.0 | 0.00 | 0.00 | 0.00 | 46 | 1023.9 |
| 20260906105034 | 53 | 230 | 0.0 | 2.0 | 0.00 | 0.00 | 0.00 | 46 | 1023.8 |
| 20260906104614 | 53 | 230 | 0.0 | 1.0 | 0.00 | 0.00 | 0.00 | 46 | 1023.7 |
| 20260906104032 | 53 | 0 | 0.0 | 1.0 | 0.00 | 0.00 | 0.00 | 47 | 1023.7 |
| 20260906103531 | 53 | 230 | 0.0 | 1.0 | 0.00 | 0.00 | 0.00 | 47 | 1023.7 |
| 20260906103048 | 54 | 230 | 0.0 | 1.0 | 0.00 | 0.00 | 0.00 | 46 | 1023.7 |
| 20260906102532 | 54 | 0 | 0.0 | 1.0 | 0.00 | 0.00 | 0.00 | 47 | 1023.7 |
| 20260906102032 | 54 | 0 | 0.0 | 1.0 | 0.00 | 0.00 | 0.00 | 47 | 1023.7 |
| 20260906101558 | 53 | 0 | 0.0 | 1.0 | 0.00 | 0.00 | 0.00 | 48 | 1023.7 |
| 20260906101034 | 54 | 0 | 0.0 | 1.0 | 0.00 | 0.00 | 0.00 | 48 | 1023.7 |
| 20260906100534 | 54 | 230 | 1.0 | 1.0 | 0.00 | 0.00 | 0.00 | 47 | 1023.6 |
| 20260906100055 | 54 | 229 | 0.0 | 2.0 | 0.00 | 0.00 | 0.00 | 48 | 1023.7 |
| 20260906095533 | 55 | 0 | 0.0 | 2.0 | 0.00 | 0.00 | 0.00 | 48 | 1023.6 |
| 20260906095033 | 55 | 229 | 1.0 | 2.0 | 0.00 | 0.00 | 0.00 | 46 | 1023.6 |
| 20260906094550 | 55 | 233 | 0.0 | 1.0 | 0.00 | 0.00 | 0.00 | 46 | 1023.6 |
| 20260906094033 | 56 | 0 | 0.0 | 3.0 | 0.00 | 0.00 | 0.00 | 46 | 1023.6 |
| 20260906093534 | 55 | 235 | 1.0 | 3.0 | 0.00 | 0.00 | 0.00 | 46 | 1023.6 |
| 20260906093110 | 56 | 212 | 2.0 | 3.0 | 0.00 | 0.00 | 0.00 | 46 | 1023.6 |
| 20260906092534 | 56 | 246 | 1.0 | 2.0 | 0.00 | 0.00 | 0.00 | 46 | 1023.6 |
| 20260906092033 | 56 | 0 | 0.0 | 3.0 | 0.00 | 0.00 | 0.00 | 46 | 1023.6 |
| 20260906091553 | 56 | 253 | 1.0 | 4.0 | 0.00 | 0.00 | 0.00 | 46 | 1023.6 |
| 20260906091031 | 56 | 242 | 2.0 | 4.0 | 0.00 | 0.00 | 0.00 | 45 | 1023.6 |
| 20260906090531 | 56 | 252 | 2.0 | 4.0 | 0.00 | 0.00 | 0.00 | 45 | 1023.6 |
| 20260906090052 | 56 | 221 | 2.0 | 3.0 | 0.00 | 0.00 | 0.00 | 46 | 1023.6 |
| 20260906085534 | 57 | 0 | 2.0 | 3.0 | 0.00 | 0.00 | 0.00 | 46 | 1023.5 |
| 20260906085032 | 56 | 233 | 1.0 | 3.0 | 0.00 | 0.00 | 0.00 | 46 | 1023.6 |
| 20260906084557 | 56 | 231 | 1.0 | 3.0 | 0.00 | 0.00 | 0.00 | 46 | 1023.5 |
| 20260906084031 | 56 | 248 | 1.0 | 3.0 | 0.00 | 0.00 | 0.00 | 46 | 1023.6 |
| 20260906083534 | 57 | 221 | 1.0 | 2.0 | 0.00 | 0.00 | 0.00 | 46 | 1023.5 |
| 20260906083058 | 57 | 0 | 0.0 | 3.0 | 0.00 | 0.00 | 0.00 | 46 | 1023.6 |
| 20260906082534 | 56 | 207 | 2.0 | 3.0 | 0.00 | 0.00 | 0.00 | 46 | 1023.6 |
| 20260906082033 | 56 | 229 | 2.0 | 4.0 | 0.00 | 0.00 | 0.00 | 46 | 1023.6 |
| 20260906081550 | 56 | 236 | 2.0 | 5.0 | 0.00 | 0.00 | 0.00 | 46 | 1023.5 |
| 20260906081033 | 56 | 209 | 2.0 | 5.0 | 0.00 | 0.00 | 0.00 | 47 | 1023.5 |
| 20260906080533 | 56 | 41 | 2.0 | 6.0 | 0.00 | 0.00 | 0.00 | 47 | 1023.5 |
| 20260906080104 | 55 | 263 | 3.0 | 6.0 | 0.00 | 0.00 | 0.00 | 48 | 1023.5 |
| 20260906075531 | 56 | 248 | 1.0 | 3.0 | 0.00 | 0.00 | 0.00 | 47 | 1023.6 |
| 20260906075033 | 56 | 274 | 0.0 | 1.0 | 0.00 | 0.00 | 0.00 | 47 | 1023.6 |
| 20260906074551 | 56 | 276 | 0.0 | 3.0 | 0.00 | 0.00 | 0.00 | 47 | 1023.8 |
| 20260906074033 | 56 | 0 | 0.0 | 4.0 | 0.00 | 0.00 | 0.00 | 47 | 1023.7 |
| 20260906073533 | 56 | 248 | 2.0 | 4.0 | 0.00 | 0.00 | 0.00 | 46 | 1023.7 |
| 20260906073056 | 55 | 240 | 2.0 | 3.0 | 0.00 | 0.00 | 0.00 | 46 | 1023.7 |
| 20260906072533 | 55 | 226 | 2.0 | 3.0 | 0.00 | 0.00 | 0.00 | 47 | 1023.6 |
| 20260906072033 | 55 | 0 | 0.0 | 1.0 | 0.00 | 0.00 | 0.00 | 47 | 1023.6 |
| 20260906071550 | 55 | 0 | 0.0 | 1.0 | 0.00 | 0.00 | 0.00 | 46 | 1023.8 |
| 20260906071034 | 56 | 0 | 0.0 | 1.0 | 0.00 | 0.00 | 0.00 | 46 | 1023.8 |
| 20260906070533 | 57 | 0 | 0.0 | 1.0 | 0.00 | 0.00 | 0.00 | 44 | 1023.7 |
| 20260906070058 | 57 | 0 | 0.0 | 1.0 | 0.00 | 0.00 | 0.00 | 44 | 1023.8 |
| 20260906065533 | 57 | 0 | 0.0 | 2.0 | 0.00 | 0.00 | 0.00 | 44 | 1023.7 |
| 20260906065032 | 58 | 247 | 0.0 | 2.0 | 0.00 | 0.00 | 0.00 | 43 | 1023.6 |
| 20260906064552 | 58 | 234 | 0.0 | 2.0 | 0.00 | 0.00 | 0.00 | 43 | 1023.6 |
| 20260906064035 | 57 | 235 | 1.0 | 2.0 | 0.00 | 0.00 | 0.00 | 44 | 1023.6 |
| 20260906063533 | 56 | 197 | 0.0 | 1.0 | 0.00 | 0.00 | 0.00 | 46 | 1023.6 |
| 20260906063100 | 56 | 197 | 0.0 | 2.0 | 0.00 | 0.00 | 0.00 | 44 | 1023.5 |
| 20260906062536 | 57 | 195 | 0.0 | 2.0 | 0.00 | 0.00 | 0.00 | 46 | 1023.6 |
| 20260906062033 | 57 | 258 | 1.0 | 2.0 | 0.00 | 0.00 | 0.00 | 44 | 1023.6 |
| 20260906061547 | 56 | 0 | 0.0 | 1.0 | 0.00 | 0.00 | 0.00 | 44 | 1023.4 |
| 20260906061033 | 56 | 0 | 0.0 | 1.0 | 0.00 | 0.00 | 0.00 | 44 | 1023.5 |
| 20260906060533 | 56 | 0 | 0.0 | 1.0 | 0.00 | 0.00 | 0.00 | 43 | 1023.6 |
| 20260906060059 | 57 | 0 | 0.0 | 1.0 | 0.00 | 0.00 | 0.00 | 44 | 1023.7 |
| 20260906055533 | 57 | 0 | 0.0 | 1.0 | 0.00 | 0.00 | 0.00 | 43 | 1023.7 |
| 20260906055033 | 57 | 228 | 0.0 | 1.0 | 0.00 | 0.00 | 0.00 | 43 | 1023.7 |
| 20260906054604 | 57 | 0 | 0.0 | 1.0 | 0.00 | 0.00 | 0.00 | 44 | 1023.6 |
| 20260906054033 | 56 | 0 | 0.0 | 1.0 | 0.00 | 0.00 | 0.00 | 44 | 1023.6 |
| 20260906053532 | 56 | 230 | 0.0 | 0.0 | 0.00 | 0.00 | 0.00 | 43 | 1023.6 |
| 20260906053054 | 57 | 0 | 0.0 | 1.0 | 0.00 | 0.00 | 0.00 | 42 | 1023.6 |
| 20260906052536 | 58 | 0 | 0.0 | 2.0 | 0.00 | 0.00 | 0.00 | 42 | 1023.7 |
| 20260906052034 | 58 | 230 | 0.0 | 2.0 | 0.00 | 0.00 | 0.00 | 42 | 1023.8 |
| 20260906051556 | 56 | 233 | 1.0 | 2.0 | 0.00 | 0.00 | 0.00 | 43 | 1023.7 |
| 20260906051034 | 55 | 236 | 0.0 | 2.0 | 0.00 | 0.00 | 0.00 | 46 | 1023.8 |
| 20260906050535 | 55 | 0 | 0.0 | 1.0 | 0.00 | 0.00 | 0.00 | 49 | 1023.9 |
| 20260906050121 | 56 | 0 | 0.0 | 1.0 | 0.00 | 0.00 | 0.00 | 50 | 1023.8 |
| 20260906045534 | 56 | 0 | 0.0 | 0.0 | 0.00 | 0.00 | 0.00 | 49 | 1023.9 |
| 20260906045032 | 58 | 0 | 0.0 | 0.0 | 0.00 | 0.00 | 0.00 | 43 | 1024.0 |
| 20260906044553 | 59 | 0 | 0.0 | 0.0 | 0.00 | 0.00 | 0.00 | 42 | 1023.9 |
| 20260906044033 | 59 | 0 | 0.0 | 1.0 | 0.00 | 0.00 | 0.00 | 39 | 1023.8 |
| 20260906043534 | 59 | 0 | 0.0 | 1.0 | 0.00 | 0.00 | 0.00 | 39 | 1023.8 |
| 20260906043058 | 60 | 0 | 0.0 | 1.0 | 0.00 | 0.00 | 0.00 | 39 | 1023.6 |
| 20260906042533 | 60 | 227 | 0.0 | 3.0 | 0.00 | 0.00 | 0.00 | 38 | 1023.5 |
| 20260906042033 | 60 | 228 | 1.0 | 3.0 | 0.00 | 0.00 | 0.00 | 37 | 1023.5 |
| 20260906041558 | 61 | 235 | 1.0 | 3.0 | 0.00 | 0.00 | 0.00 | 37 | 1023.5 |
| 20260906041033 | 61 | 237 | 0.0 | 2.0 | 0.00 | 0.00 | 0.00 | 37 | 1023.3 |
| 20260906040533 | 61 | 230 | 1.0 | 3.0 | 0.00 | 0.00 | 0.00 | 37 | 1023.4 |
| 20260906040105 | 60 | 240 | 1.0 | 3.0 | 0.00 | 0.00 | 0.00 | 39 | 1023.2 |
| 20260906035532 | 59 | 321 | 0.0 | 1.0 | 0.00 | 0.00 | 0.00 | 40 | 1023.2 |
| 20260906035034 | 59 | 0 | 0.0 | 1.0 | 0.00 | 0.00 | 0.00 | 39 | 1023.2 |
| 20260906034547 | 59 | 332 | 0.0 | 1.0 | 0.00 | 0.00 | 0.00 | 40 | 1023.2 |
| 20260906034033 | 59 | 0 | 0.0 | 1.0 | 0.00 | 0.00 | 0.00 | 41 | 1023.2 |
| 20260906033533 | 59 | 0 | 0.0 | 1.0 | 0.00 | 0.00 | 0.00 | 40 | 1023.3 |
| 20260906033055 | 59 | 331 | 0.0 | 1.0 | 0.00 | 0.00 | 0.00 | 41 | 1023.4 |
| 20260906032538 | 59 | 0 | 0.0 | 0.0 | 0.00 | 0.00 | 0.00 | 41 | 1023.2 |
| 20260906032033 | 59 | 0 | 0.0 | 0.0 | 0.00 | 0.00 | 0.00 | 40 | 1023.2 |
| 20260906031600 | 59 | 0 | 0.0 | 0.0 | 0.00 | 0.00 | 0.00 | 40 | 1023.2 |
| 20260906031033 | 59 | 0 | 0.0 | 0.0 | 0.00 | 0.00 | 0.00 | 41 | 1023.2 |
| 20260906030533 | 60 | 0 | 0.0 | 0.0 | 0.00 | 0.00 | 0.00 | 39 | 1023.2 |
| 20260906030053 | 60 | 0 | 0.0 | 1.0 | 0.00 | 0.00 | 0.00 | 39 | 1023.1 |
| 20260906025532 | 61 | 0 | 0.0 | 1.0 | 0.00 | 0.00 | 0.00 | 39 | 1023.1 |
| 20260906025036 | 61 | 331 | 0.0 | 1.0 | 0.00 | 0.00 | 0.00 | 39 | 1023.0 |
| 20260906024610 | 61 | 0 | 0.0 | 0.0 | 0.00 | 0.00 | 0.00 | 39 | 1023.0 |
| 20260906024033 | 61 | 0 | 0.0 | 0.0 | 0.00 | 0.00 | 0.00 | 38 | 1023.0 |
| 20260906023534 | 62 | 0 | 0.0 | 1.0 | 0.00 | 0.00 | 0.00 | 38 | 1022.9 |
| 20260906023059 | 62 | 0 | 0.0 | 1.0 | 0.00 | 0.00 | 0.00 | 37 | 1022.8 |
| 20260906022533 | 62 | 332 | 0.0 | 1.0 | 0.00 | 0.00 | 0.00 | 37 | 1022.9 |
| 20260906022034 | 63 | 0 | 0.0 | 1.0 | 0.00 | 0.00 | 0.00 | 37 | 1022.8 |
| 20260906021559 | 64 | 0 | 0.0 | 1.0 | 0.00 | 0.00 | 0.00 | 37 | 1022.7 |
| 20260906021036 | 65 | 0 | 0.0 | 0.0 | 0.00 | 0.00 | 0.00 | 36 | 1022.8 |
| 20260906020534 | 67 | 0 | 0.0 | 0.0 | 0.00 | 0.00 | 0.00 | 35 | 1022.7 |
| 20260906020055 | 68 | 0 | 0.0 | 1.0 | 0.00 | 0.00 | 0.00 | 30 | 1022.8 |
| 20260906015532 | 68 | 0 | 0.0 | 1.0 | 0.00 | 0.00 | 0.00 | 28 | 1022.7 |
| 20260906015033 | 69 | 0 | 0.0 | 1.0 | 0.00 | 0.00 | 0.00 | 28 | 1022.7 |
| 20260906014607 | 69 | 0 | 0.0 | 1.0 | 0.00 | 0.00 | 0.00 | 28 | 1022.7 |
| 20260906014033 | 70 | 0 | 0.0 | 1.0 | 0.00 | 0.00 | 0.00 | 28 | 1022.7 |
| 20260906013533 | 70 | 0 | 0.0 | 1.0 | 0.00 | 0.00 | 0.00 | 27 | 1022.7 |
| 20260906013052 | 71 | 0 | 0.0 | 3.0 | 0.00 | 0.00 | 0.00 | 27 | 1022.7 |
| 20260906012533 | 71 | 0 | 0.0 | 3.0 | 0.00 | 0.00 | 0.00 | 27 | 1022.7 |
| 20260906012036 | 71 | 115 | 1.0 | 3.0 | 0.00 | 0.00 | 0.00 | 27 | 1022.8 |
| 20260906011549 | 72 | 68 | 1.0 | 3.0 | 0.00 | 0.00 | 0.00 | 27 | 1022.8 |
| 20260906011033 | 72 | 164 | 0.0 | 3.0 | 0.00 | 0.00 | 0.00 | 26 | 1022.8 |
| 20260906010533 | 73 | 124 | 1.0 | 3.0 | 0.00 | 0.00 | 0.00 | 26 | 1022.8 |
| 20260906010059 | 73 | 0 | 1.0 | 3.0 | 0.00 | 0.00 | 0.00 | 26 | 1022.9 |
| 20260906005534 | 73 | 143 | 1.0 | 4.0 | 0.00 | 0.00 | 0.00 | 26 | 1022.9 |
| 20260906005036 | 73 | 0 | 1.0 | 4.0 | 0.00 | 0.00 | 0.00 | 26 | 1022.9 |
| 20260906004606 | 73 | 35 | 1.0 | 4.0 | 0.00 | 0.00 | 0.00 | 26 | 1022.9 |
| 20260906004033 | 74 | 58 | 1.0 | 4.0 | 0.00 | 0.00 | 0.00 | 25 | 1022.9 |
| 20260906003533 | 74 | 32 | 1.0 | 3.0 | 0.00 | 0.00 | 0.00 | 26 | 1022.8 |
| 20260906003052 | 75 | 63 | 1.0 | 7.0 | 0.00 | 0.00 | 0.00 | 24 | 1022.8 |
| 20260906002532 | 75 | 148 | 2.0 | 7.0 | 0.00 | 0.00 | 0.00 | 24 | 1022.8 |
| 20260906002034 | 76 | 135 | 3.0 | 12.0 | 0.00 | 0.00 | 0.00 | 21 | 1022.7 |
| 20260906001549 | 77 | 0 | 2.0 | 12.0 | 0.00 | 0.00 | 0.00 | 21 | 1022.8 |
| 20260906001033 | 77 | 259 | 2.0 | 4.0 | 0.00 | 0.00 | 0.00 | 20 | 1022.7 |
| 20260906000533 | 77 | 359 | 0.0 | 5.0 | 0.00 | 0.00 | 0.00 | 20 | 1022.7 |
| 20260906000047 | 77 | 89 | 2.0 | 6.0 | 0.00 | 0.00 | 0.00 | 20 | 1022.6 |
| 20260905235533 | 77 | 330 | 2.0 | 7.0 | 0.00 | 0.00 | 0.00 | 20 | 1022.6 |
| 20260905235035 | 77 | 252 | 3.0 | 7.0 | 0.00 | 0.00 | 0.00 | 21 | 1022.7 |
| 20260905234610 | 77 | 338 | 2.0 | 7.0 | 0.00 | 0.00 | 0.00 | 21 | 1022.7 |
| 20260905234033 | 77 | 356 | 3.0 | 7.0 | 0.00 | 0.00 | 0.00 | 20 | 1022.6 |
| 20260905233532 | 77 | 0 | 1.0 | 4.0 | 0.00 | 0.00 | 0.00 | 21 | 1022.7 |
| 20260905233047 | 77 | 221 | 0.0 | 9.0 | 0.00 | 0.00 | 0.00 | 21 | 1022.7 |
| 20260905232533 | 76 | 0 | 3.0 | 9.0 | 0.00 | 0.00 | 0.00 | 22 | 1022.7 |
| 20260905232035 | 76 | 279 | 3.0 | 9.0 | 0.00 | 0.00 | 0.00 | 20 | 1022.7 |
| 20260905231557 | 76 | 211 | 1.0 | 4.0 | 0.00 | 0.00 | 0.00 | 21 | 1022.6 |
| 20260905231034 | 76 | 207 | 0.0 | 3.0 | 0.00 | 0.00 | 0.00 | 20 | 1022.7 |
| 20260905230533 | 76 | 0 | 1.0 | 7.0 | 0.00 | 0.00 | 0.00 | 21 | 1022.7 |
| 20260905230123 | 77 | 238 | 1.0 | 7.0 | 0.00 | 0.00 | 0.00 | 21 | 1022.7 |
| 20260905225535 | 76 | 337 | 2.0 | 7.0 | 0.00 | 0.00 | 0.00 | 21 | 1022.7 |
| 20260905225033 | 76 | 307 | 1.0 | 10.0 | 0.00 | 0.00 | 0.00 | 22 | 1022.7 |
| 20260905224549 | 77 | 346 | 3.0 | 10.0 | 0.00 | 0.00 | 0.00 | 20 | 1022.8 |
| 20260905224034 | 77 | 263 | 2.0 | 7.0 | 0.00 | 0.00 | 0.00 | 20 | 1022.7 |
| 20260905223533 | 77 | 60 | 2.0 | 7.0 | 0.00 | 0.00 | 0.00 | 21 | 1022.7 |